| time (UTC) | temp F | wind direction | speed knots | gust knots | rain 1hr in | rain 24hr in | rain mn in | humidity % | barometer mb |
| 20260505041318 | 50 | 355 | 0.0 | 0.0 | 0.00 | 0.00 | 0.00 | 84 | 1015.6 |
| 20260505040815 | 50 | 355 | 0.0 | 0.0 | 0.00 | 0.00 | 0.00 | 83 | 1015.6 |
| 20260505040313 | 50 | 351 | 0.0 | 0.0 | 0.00 | 0.00 | 0.00 | 83 | 1015.4 |
| 20260505035809 | 50 | 351 | 0.0 | 0.0 | 0.00 | 0.00 | 0.00 | 83 | 1015.5 |
| 20260505035305 | 51 | 351 | 0.0 | 0.0 | 0.00 | 0.00 | 0.00 | 82 | 1015.5 |
| 20260505034803 | 51 | 351 | 0.0 | 0.0 | 0.00 | 0.00 | 0.00 | 81 | 1015.3 |
| 20260505034259 | 51 | 351 | 0.0 | 0.0 | 0.00 | 0.00 | 0.00 | 81 | 1015.4 |
| 20260505033756 | 51 | 351 | 0.0 | 0.0 | 0.00 | 0.00 | 0.00 | 81 | 1015.4 |
| 20260505033253 | 51 | 351 | 0.0 | 0.0 | 0.00 | 0.00 | 0.00 | 79 | 1015.7 |
| 20260505032751 | 52 | 351 | 0.0 | 0.0 | 0.00 | 0.00 | 0.00 | 78 | 1015.8 |
| 20260505032247 | 53 | 350 | 0.0 | 0.0 | 0.00 | 0.00 | 0.00 | 76 | 1015.6 |
| 20260505031744 | 53 | 350 | 0.0 | 0.0 | 0.00 | 0.00 | 0.00 | 74 | 1015.7 |
| 20260505031241 | 53 | 353 | 0.0 | 0.0 | 0.00 | 0.00 | 0.00 | 75 | 1015.7 |
| 20260505030738 | 54 | 353 | 0.0 | 0.0 | 0.00 | 0.00 | 0.00 | 75 | 1015.6 |
| 20260505030234 | 53 | 353 | 0.0 | 0.0 | 0.00 | 0.00 | 0.00 | 73 | 1015.7 |
| 20260505025730 | 53 | 353 | 0.0 | 0.0 | 0.00 | 0.00 | 0.00 | 74 | 1015.5 |
| 20260505025228 | 53 | 353 | 0.0 | 0.0 | 0.00 | 0.00 | 0.00 | 74 | 1015.7 |
| 20260505024726 | 54 | 353 | 0.0 | 0.0 | 0.00 | 0.00 | 0.00 | 74 | 1015.5 |
| 20260505024223 | 55 | 352 | 0.0 | 0.0 | 0.00 | 0.00 | 0.00 | 72 | 1015.5 |
| 20260505023720 | 56 | 351 | 0.0 | 0.0 | 0.00 | 0.00 | 0.00 | 70 | 1015.5 |
| 20260505023217 | 57 | 351 | 0.0 | 0.0 | 0.00 | 0.00 | 0.00 | 67 | 1015.4 |
| 20260505022715 | 56 | 357 | 0.0 | 0.0 | 0.00 | 0.00 | 0.00 | 65 | 1015.5 |
| 20260505022211 | 56 | 357 | 0.0 | 0.0 | 0.00 | 0.00 | 0.00 | 62 | 1015.4 |
| 20260505021708 | 56 | 357 | 0.0 | 0.0 | 0.00 | 0.00 | 0.00 | 67 | 1015.3 |
| 20260505021205 | 56 | 357 | 0.0 | 0.0 | 0.00 | 0.00 | 0.00 | 65 | 1015.4 |
| 20260505020701 | 56 | 357 | 0.0 | 0.0 | 0.00 | 0.00 | 0.00 | 67 | 1015.5 |
| 20260505020156 | 57 | 340 | 0.0 | 0.0 | 0.00 | 0.00 | 0.00 | 65 | 1015.5 |
| 20260505015654 | 57 | 340 | 0.0 | 0.0 | 0.00 | 0.00 | 0.00 | 65 | 1015.2 |
| 20260505015150 | 57 | 340 | 0.0 | 0.0 | 0.00 | 0.00 | 0.00 | 63 | 1015.2 |
| 20260505014648 | 57 | 340 | 0.0 | 0.0 | 0.00 | 0.00 | 0.00 | 61 | 1015.2 |
| 20260505014145 | 58 | 340 | 0.0 | 0.0 | 0.00 | 0.00 | 0.00 | 63 | 1015.3 |
| 20260505013642 | 58 | 340 | 0.0 | 0.0 | 0.00 | 0.00 | 0.00 | 63 | 1015.2 |
| 20260505013139 | 58 | 340 | 0.0 | 0.0 | 0.00 | 0.00 | 0.00 | 63 | 1015.2 |
| 20260505012638 | 58 | 340 | 0.0 | 0.0 | 0.00 | 0.00 | 0.00 | 66 | 1015.2 |
| 20260505012134 | 58 | 340 | 0.0 | 0.0 | 0.00 | 0.00 | 0.00 | 64 | 1015.0 |
| 20260505011630 | 59 | 340 | 0.0 | 0.0 | 0.00 | 0.00 | 0.00 | 61 | 1014.9 |
| 20260505011128 | 59 | 340 | 0.0 | 0.0 | 0.00 | 0.00 | 0.00 | 61 | 1014.9 |
| 20260505010627 | 60 | 340 | 0.0 | 0.0 | 0.00 | 0.00 | 0.00 | 58 | 1015.0 |
| 20260505010125 | 60 | 340 | 0.0 | 0.0 | 0.00 | 0.00 | 0.00 | 56 | 1014.8 |
| 20260505005620 | 62 | 340 | 0.0 | 0.0 | 0.00 | 0.00 | 0.00 | 56 | 1014.7 |
| 20260505005118 | 62 | 339 | 0.0 | 0.0 | 0.00 | 0.00 | 0.00 | 53 | 1014.6 |
| 20260505004615 | 63 | 340 | 0.0 | 0.0 | 0.00 | 0.00 | 0.00 | 53 | 1014.6 |
| 20260505004112 | 64 | 340 | 0.0 | 0.0 | 0.00 | 0.00 | 0.00 | 53 | 1014.6 |
| 20260505003609 | 64 | 340 | 0.0 | 0.0 | 0.00 | 0.00 | 0.00 | 52 | 1014.3 |
| 20260505003106 | 64 | 340 | 0.0 | 0.0 | 0.00 | 0.00 | 0.00 | 54 | 1014.1 |
| 20260505002602 | 65 | 339 | 0.0 | 0.0 | 0.00 | 0.00 | 0.00 | 50 | 1014.1 |
| 20260505002101 | 66 | 339 | 0.0 | 0.0 | 0.00 | 0.00 | 0.00 | 46 | 1014.8 |
| 20260505001557 | 67 | 339 | 0.0 | 0.0 | 0.00 | 0.00 | 0.00 | 44 | 1014.3 |
| 20260505001055 | 67 | 339 | 0.0 | 0.0 | 0.00 | 0.00 | 0.00 | 43 | 1014.3 |
| 20260505000552 | 68 | 339 | 0.0 | 0.0 | 0.00 | 0.00 | 0.00 | 42 | 1014.5 |
| 20260505000049 | 68 | 339 | 0.0 | 0.0 | 0.00 | 0.00 | 0.00 | 44 | 1014.2 |
| 20260504235546 | 69 | 339 | 0.0 | 0.0 | 0.00 | 0.00 | 0.00 | 41 | 1014.0 |
| 20260504235043 | 70 | 327 | 0.0 | 0.0 | 0.00 | 0.00 | 0.00 | 39 | 1014.3 |
| 20260504234540 | 70 | 318 | 0.0 | 0.0 | 0.00 | 0.00 | 0.00 | 41 | 1014.1 |
| 20260504234037 | 70 | 331 | 0.0 | 0.0 | 0.00 | 0.00 | 0.00 | 41 | 1014.2 |
| 20260504233532 | 71 | 313 | 0.0 | 0.0 | 0.00 | 0.00 | 0.00 | 40 | 1014.0 |
| 20260504233029 | 71 | 330 | 0.0 | 0.0 | 0.00 | 0.00 | 0.00 | 42 | 1013.9 |
| 20260504232526 | 71 | 350 | 0.0 | 0.0 | 0.00 | 0.00 | 0.00 | 41 | 1013.8 |
| 20260504232024 | 71 | 342 | 0.0 | 0.0 | 0.00 | 0.00 | 0.00 | 38 | 1014.0 |
| 20260504231520 | 71 | 343 | 0.0 | 0.0 | 0.00 | 0.00 | 0.00 | 40 | 1013.7 |
| 20260504231016 | 72 | 336 | 0.0 | 0.0 | 0.00 | 0.00 | 0.00 | 39 | 1013.7 |
| 20260504230513 | 72 | 320 | 0.0 | 0.0 | 0.00 | 0.00 | 0.00 | 37 | 1013.7 |
| 20260504230012 | 73 | 329 | 0.0 | 0.9 | 0.00 | 0.00 | 0.00 | 38 | 1013.8 |
| 20260504225508 | 74 | 331 | 0.0 | 0.0 | 0.00 | 0.00 | 0.00 | 36 | 1013.7 |
| 20260504225005 | 74 | 238 | 0.9 | 1.7 | 0.00 | 0.00 | 0.00 | 33 | 1013.7 |
| 20260504224502 | 74 | 199 | 0.0 | 0.9 | 0.00 | 0.00 | 0.00 | 34 | 1013.9 |
| 20260504223959 | 74 | 268 | 0.9 | 0.9 | 0.00 | 0.00 | 0.00 | 34 | 1013.8 |
| 20260504223455 | 74 | 210 | 0.9 | 1.7 | 0.00 | 0.00 | 0.00 | 35 | 1013.7 |
| 20260504222951 | 74 | 346 | 0.0 | 0.0 | 0.00 | 0.00 | 0.00 | 32 | 1013.9 |
| 20260504222449 | 74 | 304 | 0.9 | 1.7 | 0.00 | 0.00 | 0.00 | 35 | 1013.8 |
| 20260504221946 | 74 | 242 | 0.9 | 1.7 | 0.00 | 0.00 | 0.00 | 37 | 1013.4 |
| 20260504221443 | 75 | 268 | 0.0 | 0.9 | 0.00 | 0.00 | 0.00 | 35 | 1013.6 |
| 20260504220940 | 74 | 191 | 0.9 | 0.9 | 0.00 | 0.00 | 0.00 | 36 | 1013.7 |
| 20260504220436 | 74 | 316 | 0.0 | 0.0 | 0.00 | 0.00 | 0.00 | 34 | 1013.8 |
| 20260504215934 | 75 | 344 | 0.0 | 0.0 | 0.00 | 0.00 | 0.00 | 35 | 1013.9 |
| 20260504215431 | 75 | 259 | 0.9 | 1.7 | 0.00 | 0.00 | 0.00 | 35 | 1013.8 |
| 20260504214927 | 75 | 241 | 1.7 | 1.7 | 0.00 | 0.00 | 0.00 | 33 | 1013.9 |
| 20260504214423 | 75 | 303 | 0.9 | 0.9 | 0.00 | 0.00 | 0.00 | 33 | 1013.7 |
| 20260504213920 | 75 | 317 | 0.9 | 0.9 | 0.00 | 0.00 | 0.00 | 35 | 1013.7 |
| 20260504213416 | 75 | 314 | 0.0 | 0.0 | 0.00 | 0.00 | 0.00 | 36 | 1013.6 |
| 20260504212914 | 76 | 287 | 0.0 | 0.0 | 0.00 | 0.00 | 0.00 | 36 | 1013.9 |
| 20260504212409 | 76 | 255 | 1.7 | 2.6 | 0.00 | 0.00 | 0.00 | 35 | 1014.0 |
| 20260504211908 | 76 | 309 | 0.0 | 0.9 | 0.00 | 0.00 | 0.00 | 34 | 1013.8 |
| 20260504211403 | 76 | 292 | 1.7 | 1.7 | 0.00 | 0.00 | 0.00 | 33 | 1013.8 |
| 20260504210900 | 76 | 268 | 0.9 | 0.9 | 0.00 | 0.00 | 0.00 | 34 | 1013.9 |
| 20260504210357 | 75 | 348 | 0.0 | 0.0 | 0.00 | 0.00 | 0.00 | 35 | 1013.9 |
| 20260504205854 | 75 | 256 | 0.9 | 0.9 | 0.00 | 0.00 | 0.00 | 35 | 1013.7 |
| 20260504205352 | 75 | 240 | 0.9 | 0.9 | 0.00 | 0.00 | 0.00 | 35 | 1013.9 |
| 20260504204850 | 75 | 313 | 0.0 | 0.9 | 0.00 | 0.00 | 0.00 | 36 | 1014.1 |
| 20260504204348 | 76 | 310 | 0.9 | 0.9 | 0.00 | 0.00 | 0.00 | 34 | 1014.2 |
| 20260504203848 | 76 | 257 | 0.9 | 0.9 | 0.00 | 0.00 | 0.00 | 35 | 1014.0 |
| 20260504203344 | 76 | 285 | 0.0 | 0.9 | 0.00 | 0.00 | 0.00 | 34 | 1014.3 |
| 20260504202840 | 77 | 205 | 1.7 | 2.6 | 0.00 | 0.00 | 0.00 | 34 | 1014.5 |
| 20260504202337 | 77 | 223 | 0.9 | 0.9 | 0.00 | 0.00 | 0.00 | 33 | 1014.5 |
| 20260504201833 | 78 | 263 | 0.9 | 1.7 | 0.00 | 0.00 | 0.00 | 34 | 1014.6 |
| 20260504201331 | 79 | 264 | 0.9 | 0.9 | 0.00 | 0.00 | 0.00 | 34 | 1014.7 |
| 20260504200828 | 79 | 264 | 0.9 | 0.9 | 0.00 | 0.00 | 0.00 | 33 | 1014.5 |
| 20260504200325 | 78 | 283 | 0.9 | 0.9 | 0.00 | 0.00 | 0.00 | 32 | 1014.7 |
| 20260504195821 | 78 | 218 | 1.7 | 1.7 | 0.00 | 0.00 | 0.00 | 34 | 1014.8 |
| 20260504195317 | 78 | 215 | 1.7 | 1.7 | 0.00 | 0.00 | 0.00 | 33 | 1015.0 |
| 20260504194814 | 79 | 275 | 1.7 | 1.7 | 0.00 | 0.00 | 0.00 | 33 | 1014.9 |
| 20260504194310 | 79 | 262 | 1.7 | 1.7 | 0.00 | 0.00 | 0.00 | 33 | 1014.9 |
| 20260504193806 | 79 | 150 | 0.0 | 0.0 | 0.00 | 0.00 | 0.00 | 33 | 1015.1 |
| 20260504193304 | 78 | 278 | 0.9 | 0.9 | 0.00 | 0.00 | 0.00 | 34 | 1015.2 |
| 20260504192802 | 80 | 251 | 2.6 | 2.6 | 0.00 | 0.00 | 0.00 | 35 | 1015.1 |
| 20260504192300 | 79 | 254 | 0.9 | 0.9 | 0.00 | 0.00 | 0.00 | 32 | 1015.2 |
| 20260504191758 | 79 | 309 | 0.9 | 0.9 | 0.00 | 0.00 | 0.00 | 31 | 1015.3 |
| 20260504191255 | 78 | 187 | 1.7 | 2.6 | 0.00 | 0.00 | 0.00 | 35 | 1015.4 |
| 20260504190750 | 79 | 247 | 1.7 | 4.3 | 0.00 | 0.00 | 0.00 | 34 | 1015.5 |
| 20260504190247 | 79 | 243 | 0.0 | 0.9 | 0.00 | 0.00 | 0.00 | 32 | 1015.4 |
| 20260504185743 | 79 | 248 | 1.7 | 2.6 | 0.00 | 0.00 | 0.00 | 32 | 1015.7 |
| 20260504185241 | 79 | 252 | 0.9 | 1.7 | 0.00 | 0.00 | 0.00 | 35 | 1015.4 |
| 20260504184737 | 78 | 267 | 0.9 | 1.7 | 0.00 | 0.00 | 0.00 | 35 | 1015.4 |
| 20260504184233 | 79 | 323 | 0.9 | 1.7 | 0.00 | 0.00 | 0.00 | 35 | 1015.5 |
| 20260504183728 | 78 | 51 | 0.0 | 0.0 | 0.00 | 0.00 | 0.00 | 37 | 1015.7 |
| 20260504183226 | 78 | 258 | 1.7 | 1.7 | 0.00 | 0.00 | 0.00 | 37 | 1015.9 |
| 20260504182724 | 78 | 237 | 0.0 | 0.9 | 0.00 | 0.00 | 0.00 | 34 | 1015.9 |
| 20260504182221 | 78 | 309 | 0.0 | 0.0 | 0.00 | 0.00 | 0.00 | 37 | 1015.8 |
| 20260504181718 | 77 | 282 | 0.0 | 0.9 | 0.00 | 0.00 | 0.00 | 35 | 1015.8 |
| 20260504181216 | 77 | 15 | 0.9 | 0.9 | 0.00 | 0.00 | 0.00 | 37 | 1016.0 |
| 20260504180715 | 78 | 256 | 1.7 | 1.7 | 0.00 | 0.00 | 0.00 | 37 | 1016.0 |
| 20260504180213 | 78 | 267 | 1.7 | 1.7 | 0.00 | 0.00 | 0.00 | 36 | 1015.8 |
| 20260504175710 | 78 | 199 | 0.9 | 1.7 | 0.00 | 0.00 | 0.00 | 35 | 1015.8 |
| 20260504175206 | 77 | 78 | 0.9 | 0.9 | 0.00 | 0.00 | 0.00 | 37 | 1016.0 |
| 20260504174704 | 77 | 213 | 2.6 | 2.6 | 0.00 | 0.00 | 0.00 | 37 | 1015.8 |
| 20260504174202 | 76 | 316 | 0.0 | 0.9 | 0.00 | 0.00 | 0.00 | 36 | 1016.0 |
| 20260504173658 | 77 | 55 | 1.7 | 1.7 | 0.00 | 0.00 | 0.00 | 33 | 1016.1 |
| 20260504173155 | 77 | 230 | 1.7 | 1.7 | 0.00 | 0.00 | 0.00 | 36 | 1016.2 |
| 20260504172652 | 76 | 18 | 0.0 | 0.9 | 0.00 | 0.00 | 0.00 | 37 | 1016.2 |
| 20260504172148 | 77 | 240 | 1.7 | 1.7 | 0.00 | 0.00 | 0.00 | 38 | 1016.1 |
| 20260504171645 | 77 | 8 | 0.0 | 0.9 | 0.00 | 0.00 | 0.00 | 35 | 1016.2 |
| 20260504171142 | 77 | 254 | 0.9 | 0.9 | 0.00 | 0.00 | 0.00 | 38 | 1016.4 |
| 20260504170638 | 76 | 304 | 0.0 | 0.9 | 0.00 | 0.00 | 0.00 | 34 | 1016.5 |
| 20260504170136 | 76 | 302 | 0.0 | 0.9 | 0.00 | 0.00 | 0.00 | 37 | 1016.6 |
| 20260504151027 | 70 | 352 | 0.9 | 0.9 | 0.00 | 0.00 | 0.00 | 45 | 1018.0 |
| 20260504150525 | 71 | 292 | 0.9 | 0.9 | 0.00 | 0.00 | 0.00 | 43 | 1017.9 |
| 20260504140951 | 68 | 55 | 0.0 | 1.7 | 0.00 | 0.00 | 0.00 | 52 | 1017.8 |
| 20260504140447 | 66 | 7 | 0.0 | 0.9 | 0.00 | 0.00 | 0.00 | 54 | 1018.0 |
| 20260504130412 | 57 | 333 | 0.0 | 0.0 | 0.00 | 0.00 | 0.00 | 72 | 1017.8 |
| 20260504110259 | 37 | 0 | 0.0 | 0.0 | 0.00 | 0.00 | 0.00 | 99 | 1017.7 |
| 20260504100217 | 37 | 359 | 0.0 | 0.0 | 0.00 | 0.00 | 0.00 | 99 | 1017.5 |
| 20260504090139 | 38 | 359 | 0.0 | 0.0 | 0.00 | 0.00 | 0.00 | 99 | 1017.5 |
| 20260504081610 | 38 | 352 | 0.0 | 0.0 | 0.00 | 0.00 | 0.00 | 99 | 1017.4 |
| 20260504081106 | 39 | 352 | 0.0 | 0.0 | 0.00 | 0.00 | 0.00 | 99 | 1017.5 |
| 20260504080603 | 39 | 352 | 0.0 | 0.0 | 0.00 | 0.00 | 0.00 | 99 | 1017.4 |
| 20260504050415 | 42 | 353 | 0.0 | 0.0 | 0.00 | 0.00 | 0.00 | 92 | 1017.8 |
| 20260504045912 | 43 | 353 | 0.0 | 0.0 | 0.00 | 0.00 | 0.00 | 92 | 1017.4 |